EHI
0 0 0 0 0 0 0 0 0 0 0 0 0 0 0 0 0 0 0 0 0 0 0 0 0 0 0 0 0 0 0 0 0 0 0 0 0 0 0 0 0 0 0
0 0 0 0 0 0 0 0 0 0 0 0 0 0 0 0 0 0 0 0 0 0 0 0 0 0 0 0 0 0 0 0 0 0 0 0 0 0 0 0 0 0 0
0 0 0 0 0 0 0 0 0 0 0 0 0 0 0 0 0 0 0 0 0 0 0 0 0 0 0 0 0 0 0 0 0 0 0 0 0 0 0 0 0 0 0
0 0 0 0 0 0 0 0 0 0 0 0 0 0 0 0 0 0 0 0 0 0 0 0 0 0 0 0 0 0 0 0 0 0 0 0 0 0 0 0 0 0 0
0 0 0 0 0 0 0 0 0 0 0 0 0 0 0 0 0 0 0 0 0 0 0 0 0 0 0 0 0 0 0 0 0 0 0 0 0 0 0 0 0 0 0
0 0 0 0 0 0 0 0 0 0 0 0 0 0 0 0 0 0 0 0 0 0 0 0 0 0 0 0 0 0 0 0 0 0 0 0 0 0 0 0 0 0 0
0 0 0 0 0 0 0 0 0 0 0 0 0 0 0 0 0 0 0 0 0 0 0 0 0 0 0 0 0 0 0 0 0 0 0 0 0 0 0 0 0 0 0
0 0 0 0 0 0 0 0 0 0 0 0 0 0 0 0 0 0 0 0 0 0 0 0 0 0 0 0 0 0 0 0 0 0 0 0 0 0 0 0 0 0 0
0 0 0 0 0 0 0 0 0 0 0 0 0 0 0 0 0 0 0 0 0 0 0 0 0 0 0 0 0 0 0 0 0 0 0 0 0 0 0 0 0 0 0
0 0 0 0 0 0 0 0 0 0 0 0 0 0 0 0 0 0 0 0 0 0 0 0 0 0 0 0 0 0 0 0 0 0 0 0 0 0 0 0 0 0 0
0 0 0 0 0 0 0 0 0 0 0 0 0 0 0 0 0 0 0 0 0 0 0 0 0 0 0 0 0 0 0 0 0 0 0 0 0 0 0 0 0 0 0
0 0 0 0 0 0 0 0 0 0 0 0 0 0 0 0 0 0 0 0 0 0 0 0 0 0 0 0 0 0 0 0 0 0 0 0 0 0 0 0 0 0 0
0 0 0 0 0 0 0 0 0 0 0 0 0 0 0 0 0 0 0 0 0 0 0 0 0 0 0 0 0 0 0 0 0 0 0 0 0 0 0 0 0 0 0
0 0 0 0 0 0 0 0 0 0 0 0 0 0 0 0 0 0 0 0 0 0 0 0 0 0 0 0 0 0 0 0 0 0 0 0 0 0 0 0 0 0 0
0 0 0 0 0 0 0 0 0 0 0 0 0 0 0 0 0 0 0 0 0 0 0 0 0 0 0 0 0 0 0 0 0 0 0 0 0 0 0 0 0 0 0
0 0 0 0 0 0 0 0 0 0 0 0 0 0 0 0 0 0 0 0 0 0 0 0 0 0 0 0 0 0 0 0 0 0 0 0 0 0 0 0 0 0 0
0 0 0 0 0 0 0 0 0 0 0 0 0 0 0 0 0 0 0 0 0 0 0 0 0 0 0 0 0 0 0 0 0 0 0 0 0 0 0 0 0 0 0
0 0 0 0 0 0 0 0 0 0 0 0 0 0 0 0 0 0 0 0 0 0 0 0 0 0 0 0 0 0 0 0 0 0 0 0 0 0 0 0 0 0 0
0 0 0 0 0 0 0 0 0 0 0 0 0 0 0 0 0 0 0 0 0 0 0 0 0 0 0 0 0 0 0 0 0 0 0 0 0 0 0 0 0 0 0
0 0 0 0 0 0 0 0 0 0 0 0 0 0 0 0 0 0 0 0 0 0 0 0 0 0 0 0 0 0 0 0 0 0 0 0 0 0 0 0 0 0 0
0 0 0 0 0 0 0 0 0 0 0 0 0 0 0 0 0 0 0 0 0 0 0 0 0 0 0 0 0 0 0 0 0 0 0 0 0 0 0 0 0 0 0
0 0 0 0 0 0 0 0 0 0 0 0 0 0 0 0 0 0 0 0 0 0 0 0 0 0 0 0 0 0 0 0 0 0 0 0 0 0 0 0 0 0 0
0 0 0 0 0 0 0 0 0 0 0 0 0 0 0 0 0 0 0 0 0 0 0 0 0 0 0 0 0 0 0 0 0 0 0 0 0 0 0 0 0 0 0
0 0 0 0 0 0 0 0 0 0 0 0 0 0 0 0 0 0 0 0 0 0 0 0 0 0 0 0 0 0 0 0 0 0 0 0 0 0 0 0 0 0 0
0 0 0 0 0 0 0 0 0 0 0 0 0 0 0 0 0 0 0 0 0 0 0 0 0 0 0 0 0 0 0 0 0 0 0 0 0 0 0 0 0 0 0
0 0 0 0 0 0 0 0 0 0 0 0 0 0 0 0 0 0 0 0 0 0 0 0 0 0 0 0 0 0 0 0 0 0 0 0 0 0 0 0 0 0 0
Wind_Speed
2 2 1 1 1 1 1 1 1 1 1 1 1 1 0 0 0 0 1 3 4 4 4 4 3 3 3 4 4 5 5 5 6 6 7 7 7 8 8 7 8 8 10
2 2 1 1 1 1 1 1 1 1 0 0 1 0 1 1 1 1 1 2 4 4 5 5 5 5 5 5 5 5 6 6 6 7 7 8 8 8 9 9 10 10 10
3 2 2 1 1 1 1 1 1 1 1 1 1 1 1 1 1 1 1 1 2 4 5 6 6 6 6 7 6 6 7 7 7 7 8 9 9 9 10 10 10 11 11
3 2 2 1 1 1 1 1 1 1 0 0 1 1 1 1 1 1 1 1 1 2 3 5 6 7 8 8 8 8 8 8 8 9 9 9 10 10 10 10 11 11 12
3 3 2 1 1 1 1 1 0 1 0 1 1 1 1 1 1 1 2 2 1 1 1 3 5 6 8 9 9 9 9 9 9 10 10 10 10 11 11 11 11 11 12
3 2 2 1 2 1 1 1 1 0 0 1 1 1 2 2 1 1 2 2 1 2 1 2 2 3 7 8 9 10 10 10 10 10 10 11 11 11 11 12 12 13 13
2 2 2 2 2 2 2 2 1 0 0 0 1 2 2 1 1 2 1 1 1 2 1 1 1 1 3 7 9 10 11 12 12 11 11 12 12 12 12 13 13 13 13
2 2 2 2 2 1 1 2 1 1 0 0 1 1 2 3 2 2 1 1 2 1 1 2 1 2 2 2 5 10 11 12 12 13 13 13 13 13 14 14 14 14 14
2 2 2 2 2 2 2 2 2 3 1 0 0 2 1 2 2 2 2 2 2 1 2 2 2 2 3 2 3 6 10 12 13 14 14 14 14 15 15 15 15 15 15
1 1 2 2 2 2 2 2 2 2 2 1 0 0 1 2 1 3 2 2 2 2 3 3 3 3 3 3 4 7 10 12 13 14 15 15 15 16 16 16 16 16 16
1 1 1 2 2 2 2 2 2 1 1 2 2 1 0 0 1 2 4 3 2 2 2 3 3 3 3 3 3 6 11 12 14 14 15 15 16 17 17 17 17 17 17
0 0 1 1 2 2 2 2 2 2 2 2 2 2 2 2 2 2 3 4 4 3 3 3 3 3 3 3 5 10 11 13 14 14 15 15 16 17 17 17 18 17 17
1 1 1 1 1 1 1 2 2 2 2 2 2 2 2 2 2 2 2 4 4 4 3 2 3 3 3 3 4 10 10 13 14 15 15 15 16 17 17 18 18 18 18
2 1 1 1 1 1 1 1 1 1 1 1 1 1 1 2 2 2 2 2 4 4 3 4 2 3 3 3 6 10 7 13 14 15 15 15 16 16 17 17 18 18 18
1 1 1 1 1 1 1 1 1 0 1 1 1 1 1 2 1 2 2 2 3 5 6 4 3 3 3 3 7 5 5 12 15 15 15 15 16 16 17 17 17 17 16
1 1 1 1 1 1 1 1 1 0 1 0 1 1 1 1 2 2 2 2 3 4 6 4 4 4 5 6 9 6 6 14 14 15 15 15 16 16 16 16 16 16 16
1 1 1 1 1 1 1 1 1 0 1 1 1 1 2 2 2 2 2 2 2 3 6 7 4 4 5 5 6 5 6 6 7 14 16 16 15 15 15 15 16 16 16
1 1 1 1 0 0 1 1 1 0 1 1 2 2 2 2 2 2 2 2 3 3 5 8 6 5 5 5 6 7 7 7 6 13 16 16 16 15 16 15 15 15 15
2 1 1 1 0 0 0 1 1 1 1 2 2 2 3 2 3 3 3 3 3 4 4 6 7 5 4 4 6 7 7 6 7 10 13 14 15 16 16 16 16 16 15
1 1 1 0 0 0 0 1 1 1 1 2 2 2 3 3 4 4 4 4 4 4 4 5 6 6 5 4 4 5 7 5 7 7 10 11 14 16 16 16 16 16 16
1 1 1 1 1 1 1 1 1 1 1 2 2 2 3 4 6 5 5 4 4 4 4 5 5 6 5 5 5 5 7 8 7 5 5 6 7 6 8 12 14 15 16
1 1 1 1 1 1 2 3 3 2 2 2 3 3 4 4 6 8 9 9 7 6 6 5 6 7 8 6 6 6 7 7 7 3 4 7 5 6 6 5 11 15 16
1 1 1 1 1 2 4 4 5 3 2 2 3 4 4 5 7 5 7 9 9 10 10 8 8 8 8 7 7 8 7 7 9 6 6 8 5 6 6 8 14 16 16
1 1 1 1 2 3 5 5 5 3 2 3 3 4 5 5 5 6 6 6 6 7 8 7 7 9 8 8 7 8 8 8 8 6 4 7 6 6 7 6 12 15 15
1 1 1 2 2 3 5 5 5 2 2 4 4 4 5 6 9 10 6 7 7 7 9 11 12 12 13 13 10 5 5 6 8 6 3 4 5 6 6 6 7 11 13
1 2 2 2 2 3 4 5 6 2 3 4 4 5 7 8 10 10 6 6 7 8 7 7 8 9 8 8 10 6 5 6 6 6 2 3 4 5 6 4 4 5 7
Wind_Direction
137 129 121 111 101 93 104 92 81 70 47 29 50 64 24 318 308 288 317 334 328 320 312 306 302 301 309 312 312 313 308 306 307 303 297 298 296 291 287 290 288 289 282
149 146 142 140 143 146 135 125 123 113 39 12 358 323 276 273 284 293 304 322 324 322 315 310 310 306 302 300 300 300 301 300 300 300 297 294 291 289 286 283 282 282 290
154 156 156 167 186 162 130 98 88 79 53 7 317 300 280 262 273 278 284 296 310 321 319 314 312 310 306 301 298 298 298 298 298 300 300 298 294 290 288 286 283 282 283
158 155 162 186 173 144 139 136 126 103 339 295 297 298 290 282 278 272 272 280 289 309 314 319 316 313 311 309 305 302 299 297 296 296 296 298 297 293 288 287 284 284 284
163 160 173 178 151 140 144 157 112 161 229 289 284 296 302 292 285 282 269 265 262 276 283 314 320 321 318 313 311 308 306 301 296 294 294 293 291 288 286 287 286 284 283
166 160 164 155 141 139 149 169 170 168 218 249 310 316 304 296 289 270 265 265 259 260 271 292 304 314 320 314 313 311 308 306 301 296 295 293 291 290 288 285 285 283 281
157 154 156 154 157 168 182 184 162 135 324 29 52 330 319 304 297 281 272 267 271 278 275 280 290 294 308 315 313 309 308 306 303 301 299 294 291 290 289 287 286 285 284
156 157 159 166 171 169 170 181 157 141 354 79 119 39 331 331 320 305 298 271 280 302 302 301 285 291 294 296 307 310 306 304 305 305 303 299 295 292 290 288 287 286 285
156 157 164 168 173 172 189 199 185 170 182 262 129 151 176 253 303 309 300 292 286 290 287 293 283 284 291 295 294 306 309 307 305 304 302 299 297 295 294 291 290 288 286
150 160 167 172 178 185 193 206 195 190 168 194 263 238 205 198 227 298 305 300 297 287 281 290 286 278 278 283 291 303 307 307 305 304 303 300 298 298 297 296 294 291 289
124 159 169 167 179 191 199 195 189 191 183 187 189 197 239 290 224 227 284 300 305 279 268 268 271 272 276 277 280 295 306 305 304 303 303 300 299 298 297 296 294 292 288
175 209 184 179 187 191 198 199 191 187 198 192 194 188 192 208 223 216 260 288 291 286 277 266 263 269 275 277 285 301 302 303 304 303 302 300 298 297 297 297 293 291 289
216 232 214 204 201 203 199 188 183 195 196 193 203 214 218 230 222 222 248 278 287 288 283 275 258 262 279 278 285 297 297 303 303 302 299 298 296 295 294 294 293 291 289
209 214 203 201 198 184 176 166 161 189 181 193 215 222 237 250 239 230 228 255 290 291 277 269 273 258 271 277 286 298 294 299 302 301 299 297 296 295 293 292 291 289 289
179 143 159 164 152 136 134 130 127 189 169 201 211 221 237 255 250 249 241 232 242 283 286 274 274 271 276 281 290 290 284 293 299 300 300 298 297 296 293 291 289 290 290
114 111 113 118 108 108 111 117 116 170 149 241 238 228 247 258 258 254 250 255 242 250 274 275 269 281 287 293 297 293 287 297 298 300 300 301 300 299 297 296 294 293 291
93 104 114 119 126 123 127 129 151 178 188 259 265 250 266 263 261 265 258 259 258 248 268 283 278 287 284 291 300 296 293 290 292 298 299 299 299 299 298 297 296 294 293
83 91 89 92 88 103 130 152 198 235 227 254 266 263 272 278 276 272 265 264 263 252 259 281 289 291 284 289 294 294 298 297 292 295 298 298 298 298 298 296 295 294 292
70 66 80 87 43 4 195 227 213 239 253 261 262 260 270 272 281 281 275 275 271 273 262 271 285 291 292 295 299 296 293 291 293 296 297 297 298 299 298 296 296 294 292
73 55 42 22 292 274 251 249 254 265 269 272 268 262 265 262 269 275 280 275 277 279 276 277 284 290 290 289 288 298 303 299 297 295 293 295 296 298 298 298 297 294 292
42 40 28 2 334 303 268 276 272 271 273 286 289 277 273 282 287 288 289 286 286 284 284 285 287 292 293 302 297 295 297 301 292 280 288 290 292 289 291 293 294 292 291
32 42 31 351 329 318 325 325 321 304 292 291 298 302 299 300 303 305 301 295 290 285 284 282 283 285 286 288 291 292 295 303 299 287 293 293 288 286 286 282 289 292 291
31 22 358 345 323 316 328 334 337 333 321 306 302 303 305 306 310 299 301 302 296 288 281 276 277 278 281 282 285 286 283 285 283 290 296 289 286 283 285 289 292 292 291
12 357 350 335 324 323 337 341 344 346 325 309 297 289 290 294 295 296 293 294 289 285 282 274 266 270 274 276 269 274 279 286 284 277 265 280 290 287 291 287 290 291 293
356 338 328 331 324 318 336 343 345 337 328 316 307 300 294 290 298 306 302 297 297 294 294 290 287 287 290 293 295 293 291 294 294 289 256 264 285 297 290 282 285 290 294
348 348 342 331 314 306 326 340 346 338 323 314 311 307 305 305 305 308 297 290 293 296 300 300 299 300 293 290 294 280 275 281 291 291 271 277 288 307 302 283 285 295 295